Orbital Elements at Epoch 2459200.5 (2020-Dec-17.0) TDB
Reference: JPL 23 (heliocentric ecliptic J2000)
Element | Value | Uncertainty (1-sigma) | Units |
e | .197187527278351 | 3.7265e-08 | |
a | 3.182233843289486 | 2.8278e-08 | au |
q | 2.554737020509749 | 1.2309e-07 | au |
i | 10.99602259324287 | 4.095e-06 | deg |
node | 122.0820555795182 | 2.3907e-05 | deg |
peri | 118.2097431500913 | 2.762e-05 | deg |
M | 173.90758662361 | 1.8072e-05 | deg |
tp | 2458198.857854847341 (2018-Mar-21.35785485) | 9.5157e-05 | TDB |
period | 2073.464299377511 5.68 | 2.7638e-05 7.567e-08 | d yr |
n | .1736224733206538 | 2.3143e-09 | deg/d |
Q | 3.809730666069223 | 3.3854e-08 | au |
|
| | Orbit Determination Parameters
Additional Information
|